[[{"header":{"parameterUnit":"m.s-1","parameterCategory":1,"la1":30.2992,"la2":30.254,"lo1":-89.0895,"lo2":-89.0443,"dy":0.0025,"dx":0.0025,"nx":19,"ny":19,"refTime":"2026-04-23T09:00:00:Z","depth":0,"parameterNumber":2,"parameterNumberName":"U-component_of_WINDS"},"data":[0,0,0,-2.2419,-2.2418,-2.2358,-2.2357,-2.2295,-2.2295,0,0,0,0,0,0,0,0,0,0,0,-2.2445,-2.2445,-2.2419,-2.2418,-2.2358,-2.2357,-2.2295,-2.2295,0,0,0,0,0,0,0,0,0,0,0,-2.2445,-2.2445,-2.2445,-2.2417,-2.2358,-2.2357,-2.2295,-2.2335,0,0,0,0,0,0,0,0,0,0,-2.2391,-2.2424,-2.2445,-2.2445,-2.2417,-2.2358,-2.2357,-2.2337,-2.2333,-2.2329,0,-2.2327,0,-2.231,-2.2292,-2.2291,0,0,0,-2.2411,-2.2428,-2.2404,-2.2445,-2.2417,-2.2358,-2.2383,-2.2335,-2.233,-2.2323,-2.2326,-2.2323,-2.2309,-2.2291,-2.2291,-2.229,-2.229,0,0,-2.2414,-2.2439,-2.2407,-2.2401,-2.2411,-2.2385,-2.2381,-2.2331,-2.2336,-2.2326,-2.2322,-2.2308,-2.2291,-2.2291,-2.2289,-2.229,0,0,0,-2.2428,-2.2442,-2.2418,-2.2404,-2.2392,-2.2383,-2.2379,-2.2338,-2.2329,-2.2321,-2.2307,-2.2291,-2.229,-2.2289,-2.2289,-2.2328,0,0,0,-2.243,-2.245,-2.242,-2.2435,-2.2393,-2.2365,-2.2387,-2.2332,-2.2326,-2.2308,-2.2291,-2.229,-2.2288,-2.2289,-2.2326,-2.2342,0,0,0,-2.2446,-2.2451,-2.2446,-2.2436,-2.2412,-2.2365,-2.2352,-2.233,-2.2318,-2.2291,-2.229,-2.2288,-2.2289,-2.2325,-2.2339,-2.2348,0,0,0,-2.247,-2.2481,-2.2447,-2.2454,-2.2412,-2.239,-2.2352,-2.2334,-2.2316,-2.229,-2.2289,-2.2289,-2.2324,-2.2337,-2.2347,-2.236,-2.2368,0,0,-2.2497,-2.2485,-2.2487,-2.2455,-2.2445,-2.2397,-2.2393,-2.2352,-2.2327,-2.2304,-2.2303,-2.2327,-2.2339,-2.2348,-2.2407,-2.2414,0,0,0,-2.2504,-2.2506,-2.2498,-2.2482,-2.2452,-2.2428,-2.2386,-2.2371,-2.235,-2.232,-2.2333,-2.2339,-2.2343,-2.2348,-2.2354,-2.2356,-2.2293,-2.2293,-2.2293,-2.2576,-2.2544,-2.2546,-2.2507,-2.2492,-2.245,-2.2435,-2.2408,-2.2379,-2.2383,-2.2375,-2.2415,-2.2422,-2.2426,-2.2428,-2.2381,-2.2381,-2.2381,-2.2381,-2.2612,-2.2609,-2.2572,-2.256,-2.2527,-2.2516,-2.2477,-2.2457,-2.2442,-2.2418,-2.242,-2.2395,-2.2434,-2.2434,-2.2384,-2.2383,-2.2383,-2.2383,-2.2383,-2.2654,-2.2647,-2.263,-2.2605,-2.259,-2.2551,-2.2539,-2.2509,-2.248,-2.2483,-2.2471,-2.247,-2.2465,-2.248,-2.248,-2.248,-2.248,-2.248,-2.248,-2.2705,-2.2684,-2.2678,-2.2649,-2.2635,-2.2614,-2.2573,-2.2559,-2.2535,-2.2515,-2.2514,-2.2485,-2.2445,-2.2434,-2.2482,-2.2482,-2.2481,-2.2481,-2.2481,-2.275,-2.2736,-2.2726,-2.2712,-2.2676,-2.2663,-2.2626,-2.26,-2.2584,-2.2579,-2.2551,-2.2526,-2.2511,-2.2506,-2.2497,-2.2558,-2.2558,-2.2558,-2.2558,-2.2785,-2.2776,-2.2759,-2.274,-2.2718,-2.2683,-2.2674,-2.2643,-2.2608,-2.2597,-2.2584,-2.257,-2.2567,-2.2553,-2.2548,-2.2539,-2.2609,-2.2609,-2.2609,-2.2811,-2.2798,-2.2795,-2.2761,-2.2731,-2.2706,-2.2696,-2.2676,-2.2634,-2.2611,-2.2587,-2.2585,-2.2562,-2.2557,-2.2531,-2.2523,-2.2506,0,0]},{"header":{"parameterUnit":"m.s-1","parameterCategory":1,"la1":30.2992,"la2":30.254,"lo1":-89.0895,"lo2":-89.0443,"dy":0.0025,"dx":0.0025,"nx":19,"ny":19,"refTime":"2026-04-23T09:00:00:Z","depth":0,"parameterNumber":3,"parameterNumberName":"V-component_of_WINDS"},"data":[0,0,0,4.5166,4.5165,4.5131,4.5131,4.5088,4.5088,0,0,0,0,0,0,0,0,0,0,0,4.5178,4.5178,4.5166,4.5165,4.5131,4.5131,4.5088,4.5088,0,0,0,0,0,0,0,0,0,0,0,4.5178,4.5178,4.5177,4.5165,4.5131,4.5131,4.5088,4.5113,0,0,0,0,0,0,0,0,0,0,4.5146,4.5159,4.5178,4.5177,4.5165,4.5131,4.5131,4.5114,4.5112,4.5104,0,4.5099,0,4.5093,4.5085,4.5085,0,0,0,4.5163,4.5161,4.5151,4.5177,4.5165,4.5131,4.5146,4.5113,4.511,4.51,4.5099,4.5097,4.5092,4.5085,4.5084,4.5053,4.5053,0,0,4.5165,4.5172,4.5153,4.5149,4.5156,4.5147,4.5145,4.5111,4.5109,4.5099,4.5096,4.5092,4.5084,4.5084,4.5053,4.5053,0,0,0,4.5172,4.5173,4.5164,4.5151,4.5145,4.5146,4.5144,4.511,4.5107,4.5096,4.5091,4.5084,4.5084,4.5053,4.5053,4.5059,0,0,0,4.5173,4.5177,4.5165,4.5168,4.5146,4.5127,4.5144,4.5109,4.5105,4.5091,4.5084,4.5083,4.5053,4.5053,4.5059,4.506,0,0,0,4.5179,4.5178,4.5174,4.5169,4.5155,4.5128,4.5122,4.5108,4.5102,4.5085,4.5083,4.5054,4.5053,4.5059,4.506,4.5055,0,0,0,4.5187,4.5178,4.5174,4.5162,4.5155,4.5133,4.5122,4.5104,4.509,4.5084,4.5053,4.5053,4.5059,4.506,4.5055,4.5053,4.5052,0,0,4.5179,4.5177,4.5169,4.5165,4.5145,4.5137,4.5117,4.5096,4.5086,4.5064,4.5064,4.5059,4.506,4.5055,4.5047,4.5047,0,0,0,4.5169,4.5163,4.5156,4.5145,4.513,4.5117,4.5099,4.5091,4.5073,4.5077,4.5056,4.5056,4.5053,4.5051,4.5051,4.5048,4.5053,4.5053,4.5053,4.5166,4.5157,4.5144,4.5131,4.5119,4.5102,4.5091,4.5078,4.507,4.5065,4.5058,4.5055,4.5053,4.5053,4.505,4.5056,4.5056,4.5056,4.5056,4.5153,4.5144,4.5137,4.5121,4.5111,4.5097,4.508,4.5076,4.506,4.5059,4.5055,4.5054,4.5053,4.505,4.5056,4.5056,4.5056,4.5056,4.5056,4.515,4.5145,4.5138,4.5121,4.5109,4.5095,4.5083,4.5073,4.5064,4.5061,4.5053,4.5053,4.5052,4.5058,4.5058,4.5058,4.5058,4.5058,4.5058,4.5151,4.5142,4.5134,4.5119,4.5112,4.51,4.5083,4.5075,4.5062,4.5056,4.5056,4.5049,4.5055,4.5057,4.5058,4.5058,4.5058,4.5058,4.5058,4.5141,4.5143,4.5129,4.5122,4.5104,4.5094,4.5083,4.5066,4.5058,4.5052,4.5046,4.5052,4.5048,4.5048,4.505,4.5048,4.5048,4.5048,4.5048,4.5139,4.5138,4.5123,4.5112,4.5099,4.5089,4.5073,4.5061,4.5047,4.5041,4.504,4.5041,4.5042,4.5038,4.5038,4.5039,4.5035,4.5035,4.5035,4.5133,4.513,4.512,4.5109,4.5095,4.5084,4.5069,4.5055,4.504,4.5034,4.5036,4.5037,4.5039,4.504,4.5034,4.5034,4.5036,0,0]}]]